Location: *
(51.1248°S, 108.4023°W)
Time: 00:06:19
(UTC+00:00)

Cosmos 1656 - Pass Details

Date: 28 October 2021
Orbit: 799 x 848 km, 71.1° (Epoch: 30 November)

Event Time Altitude Azimuth Distance (km) Brightness Sun altitude
Exits shadow 10:51:05 - 324° (NW) 2,650 5.7 -8.1°
Reaches altitude 10° 10:51:35 10° 324° (NW) 2,464 5.5 -8.1°
Maximum altitude 10:57:15 74° 238° (WSW) 895 3.8 -7.3°
Drops below altitude 10° 11:03:03 10° 153° (SSE) 2,510 7.2 -6.5°
Sets 11:05:32 0° 150° (SSE) 3,453 8.1 -6.2°
